Crookston, MN

7:16 PM CDT on June 28, 2017 (GMT -0500)
Crookston Municipal-Kirkwood

Weather History for KCKN - June, 2013

Change the Weather History Date:

Sunday, June 23, 2013

  Actual Average Record
Temperature  
Mean Temperature 68 °F -  
Max Temperature 77 °F 72 °F 91 °F (2005)
Min Temperature 60 °F 52 °F 39 °F (2004)
Cooling Degree Days 4    
Growing Degree Days 18 (Base 50)    
Moisture  
Dew Point 62 °F    
Average Humidity 83    
Maximum Humidity 100    
Minimum Humidity 53    
Precipitation  
Precipitation 0.34 in - - ()
Sea Level Pressure  
Sea Level Pressure 29.69 in    
Wind  
Wind Speed 10 mph (SSW)    
Max Wind Speed 24 mph    
Max Gust Speed 33 mph    
Visibility 10 miles    
Events Rain    
Averages and records for this station are not official NWS values.
T = Trace of Precipitation, MM = Missing Value Source: NWS Daily Summary

Daily Weather History Graph

Daily Weather History Graph

Search for Another Location

Airport or City:

Trip Planner

Search our weather history database for the weather conditions in past years. The results will help you decide how hot, cold, wet, or windy it might be!

Date:

Astronomy

Jun. 23, 2013 Rise Set
Actual Time 5:28 AM CDT 9:29 PM CDT
Civil Twilight 4:47 AM CDT 10:10 PM CDT
Nautical Twilight 3:49 AM CDT 11:07 PM CDT
Astronomical Twilight 2:14 AM CDT 12:42 AM CDT
Moon 9:35 PM CDT (6/23) 5:52 AM CDT (6/23)
Length of Visible Light 17h 23m
Length of Day
16h 01m
Full, 100% of the Moon is Illuminated
Jun 23
Full
Jun 29
Last Quarter
Jul 8
New
Jul 15
First Quarter
Jul 22
Full

Hourly Weather History & Observations

Time (CDT) Temp. Dew Point Humidity Pressure Visibility Wind Dir Wind Speed Gust Speed Precip Events Conditions
12:14 AM 66.2 °F 64.4 °F 94% 29.81 in 10.0 mi SSE 5.8 mph - N/A   Clear
12:35 AM 66.2 °F 64.4 °F 94% 29.80 in 10.0 mi SSE 8.1 mph - N/A   Clear
12:54 AM 66.2 °F 64.4 °F 94% 29.78 in 10.0 mi SE 8.1 mph - N/A   Clear
1:14 AM 66.2 °F 64.4 °F 94% 29.76 in 10.0 mi ESE 8.1 mph - N/A   Clear
1:35 AM 66.2 °F 64.4 °F 94% 29.76 in 10.0 mi SSE 8.1 mph - N/A   Clear
1:54 AM 66.2 °F 64.4 °F 94% 29.80 in 10.0 mi South 11.5 mph - N/A   Clear
2:15 AM 66.2 °F 64.4 °F 94% 29.78 in 10.0 mi SSE 11.5 mph - N/A   Clear
2:35 AM 66.2 °F 64.4 °F 94% 29.77 in 10.0 mi SE 10.4 mph - N/A   Clear
2:54 AM 66.2 °F 64.4 °F 94% 29.75 in 10.0 mi SE 9.2 mph - N/A   Clear
3:15 AM 66.2 °F 64.4 °F 94% 29.74 in 10.0 mi SE 10.4 mph - N/A   Clear
3:35 AM 64.4 °F 62.6 °F 94% 29.75 in 10.0 mi SE 11.5 mph - N/A   Clear
3:54 AM 64.4 °F 62.6 °F 94% 29.74 in 10.0 mi SE 10.4 mph - N/A   Clear
4:15 AM 64.4 °F 62.6 °F 94% 29.74 in 10.0 mi SE 9.2 mph - N/A   Clear
4:35 AM 64.4 °F 62.6 °F 94% 29.73 in 10.0 mi SSE 9.2 mph - N/A   Clear
4:54 AM 64.4 °F 62.6 °F 94% 29.72 in 10.0 mi SE 8.1 mph - N/A   Clear
5:15 AM 64.4 °F 62.6 °F 94% 29.72 in 10.0 mi SE 8.1 mph - N/A   Clear
5:34 AM 64.4 °F 62.6 °F 94% 29.71 in 10.0 mi SE 6.9 mph - N/A   Clear
5:54 AM 64.4 °F 62.6 °F 94% 29.70 in 10.0 mi ESE 9.2 mph - N/A   Scattered Clouds
6:15 AM 64.4 °F 62.6 °F 94% 29.69 in 10.0 mi SE 8.1 mph - N/A   Scattered Clouds
6:34 AM 64.4 °F 62.6 °F 94% 29.68 in 10.0 mi SE 9.2 mph - N/A   Mostly Cloudy
6:54 AM 66.2 °F 64.4 °F 94% 29.66 in 10.0 mi ESE 6.9 mph - N/A   Overcast
7:14 AM 66.2 °F 64.4 °F 94% 29.65 in 10.0 mi ESE 4.6 mph - N/A Rain Light Rain
7:34 AM 66.2 °F 64.4 °F 94% 29.64 in 10.0 mi East 9.2 mph - N/A   Mostly Cloudy
7:55 AM 66.2 °F 64.4 °F 94% 29.66 in 10.0 mi SE 11.5 mph - N/A   Mostly Cloudy
8:14 AM 66.2 °F 64.4 °F 94% 29.66 in 10.0 mi SE 6.9 mph - N/A   Overcast
8:35 AM 66.2 °F 64.4 °F 94% 29.66 in 10.0 mi ESE 6.9 mph - N/A Rain Light Rain
8:55 AM 66.2 °F 64.4 °F 94% 29.67 in 7.0 mi SSE 11.5 mph - N/A Rain Rain
9:14 AM 66.2 °F 64.4 °F 94% 29.65 in 7.0 mi ESE 6.9 mph - N/A Rain Rain
9:35 AM 66.2 °F 64.4 °F 94% 29.64 in 7.0 mi SE 8.1 mph - 0.01 in Rain Light Rain
9:55 AM 66.2 °F 64.4 °F 94% 29.62 in 10.0 mi SE 5.8 mph - 0.01 in Rain Rain
10:14 AM 66.2 °F 66.2 °F 100% 29.62 in 7.0 mi SSE 9.2 mph - 0.03 in Rain Rain
10:35 AM 66.2 °F 66.2 °F 100% 29.61 in 7.0 mi SE 6.9 mph - 0.04 in Rain Light Rain
10:55 AM 66.2 °F 66.2 °F 100% 29.61 in 10.0 mi SSE 8.1 mph - N/A   Mostly Cloudy
11:14 AM 66.2 °F 64.4 °F 94% 29.61 in 4.0 mi SSE 6.9 mph - 0.09 in Rain Heavy Rain
11:35 AM 66.2 °F 64.4 °F 94% 29.61 in 7.0 mi South 8.1 mph - 0.29 in Rain Rain
11:55 AM 66.2 °F 66.2 °F 100% 29.61 in 10.0 mi South 6.9 mph - N/A Rain Light Rain
12:14 PM 66.2 °F 66.2 °F 100% 29.61 in 10.0 mi South 9.2 mph - N/A   Mostly Cloudy
12:35 PM 66.2 °F 66.2 °F 100% 29.61 in 10.0 mi South 9.2 mph - N/A   Overcast
12:54 PM 68.0 °F 68.0 °F 100% 29.61 in 10.0 mi WSW 15.0 mph - N/A   Mostly Cloudy
1:15 PM 69.8 °F 68.0 °F 94% 29.61 in 10.0 mi West 19.6 mph - N/A   Mostly Cloudy
1:34 PM 68.0 °F 66.2 °F 94% 29.62 in 10.0 mi West 18.4 mph 21.9 mph N/A   Scattered Clouds
1:55 PM 68.0 °F 64.4 °F 88% 29.62 in 10.0 mi West 16.1 mph 23.0 mph N/A   Mostly Cloudy
2:15 PM 71.6 °F 64.4 °F 78% 29.62 in 10.0 mi West 19.6 mph 26.5 mph N/A   Mostly Cloudy
2:34 PM 73.4 °F 62.6 °F 69% 29.63 in 10.0 mi West 18.4 mph 33.4 mph N/A   Scattered Clouds
2:55 PM 73.4 °F 62.6 °F 69% 29.63 in 10.0 mi West 19.6 mph 25.3 mph N/A   Scattered Clouds
3:15 PM 75.2 °F 62.6 °F 65% 29.64 in 10.0 mi West 18.4 mph 25.3 mph N/A   Scattered Clouds
3:34 PM 75.2 °F 62.6 °F 65% 29.65 in 10.0 mi West 17.3 mph 21.9 mph N/A   Scattered Clouds
3:55 PM 75.2 °F 62.6 °F 65% 29.65 in 10.0 mi West 16.1 mph - N/A   Scattered Clouds
4:15 PM 73.4 °F 62.6 °F 69% 29.65 in 10.0 mi West 16.1 mph - N/A   Mostly Cloudy
4:34 PM 77.0 °F 60.8 °F 57% 29.65 in 10.0 mi West 24.2 mph 27.6 mph N/A   Scattered Clouds
4:55 PM 75.2 °F 60.8 °F 61% 29.65 in 10.0 mi West 20.7 mph 32.2 mph N/A   Scattered Clouds
5:14 PM 75.2 °F 60.8 °F 61% 29.66 in 10.0 mi West 20.7 mph 29.9 mph N/A   Scattered Clouds
5:34 PM 75.2 °F 57.2 °F 53% 29.66 in 10.0 mi West 21.9 mph 27.6 mph N/A   Scattered Clouds
5:55 PM 75.2 °F 59.0 °F 57% 29.67 in 10.0 mi West 23.0 mph 28.8 mph N/A   Mostly Cloudy
6:14 PM 73.4 °F 57.2 °F 57% 29.68 in 10.0 mi West 19.6 mph 27.6 mph N/A   Scattered Clouds
6:34 PM 73.4 °F 55.4 °F 53% 29.68 in 10.0 mi West 24.2 mph 28.8 mph N/A   Scattered Clouds
6:55 PM 73.4 °F 57.2 °F 57% 29.70 in 10.0 mi West 19.6 mph 24.2 mph N/A   Clear
7:14 PM 71.6 °F 57.2 °F 60% 29.71 in 10.0 mi West 19.6 mph - N/A   Clear
7:35 PM 71.6 °F 57.2 °F 60% 29.72 in 10.0 mi West 19.6 mph 25.3 mph N/A   Scattered Clouds
7:55 PM 69.8 °F 55.4 °F 60% 29.73 in 10.0 mi West 16.1 mph 21.9 mph N/A   Clear
8:14 PM 69.8 °F 53.6 °F 56% 29.74 in 10.0 mi West 17.3 mph - N/A   Clear
8:35 PM 68.0 °F 55.4 °F 64% 29.75 in 10.0 mi West 9.2 mph - N/A   Clear
8:54 PM 66.2 °F 55.4 °F 68% 29.76 in 10.0 mi West 9.2 mph - N/A   Clear
9:14 PM 66.2 °F 55.4 °F 68% 29.77 in 10.0 mi WSW 9.2 mph - N/A   Clear
9:35 PM 66.2 °F 57.2 °F 73% 29.77 in 10.0 mi WSW 9.2 mph - N/A   Clear
9:54 PM 64.4 °F 57.2 °F 77% 29.78 in 10.0 mi WSW 8.1 mph - N/A   Clear
10:14 PM 62.6 °F 57.2 °F 82% 29.78 in 10.0 mi SW 6.9 mph - N/A   Clear
10:35 PM 60.8 °F 57.2 °F 88% 29.78 in 10.0 mi SW 6.9 mph - N/A   Clear
10:54 PM 60.8 °F 55.4 °F 82% 29.79 in 10.0 mi SSW 6.9 mph - N/A   Clear
11:14 PM 60.8 °F 55.4 °F 82% 29.78 in 10.0 mi SSW 6.9 mph - N/A   Clear
11:35 PM 60.8 °F 55.4 °F 82% 29.78 in 10.0 mi SSW 9.2 mph - N/A   Clear
11:54 PM 60.8 °F 55.4 °F 82% 29.78 in 10.0 mi SSW 6.9 mph - N/A   Clear